This is the latest recevied weather packets stored in our database for station/object K7KAZ. If no packets are shown the sender has not sent any weather packets the latest 10 day(s).
| Time | Temp. | Humidity | Pressure | Rain* | Wind** | Luminosity | Snow |
|---|---|---|---|---|---|---|---|
| 1777743224 | 28.33° C | 28% | 1017.3 hPa | 0 mm | - | 773 W/m² | - |
| 1777742922 | 28.33° C | 28% | 1017.4 hPa | 0 mm | - | 695 W/m² | - |
| 1777742619 | 27.78° C | 29% | 1017.4 hPa | 0 mm | - | 782 W/m² | - |
| 1777742314 | 27.78° C | 29% | 1017.3 hPa | 0 mm | - | 801 W/m² | - |
| 1777742011 | 28.33° C | 29% | 1017.3 hPa | 0 mm | - | 768 W/m² | - |
| 1777741709 | 27.78° C | 29% | 1017.2 hPa | 0 mm | - | 805 W/m² | - |
| 1777741405 | 27.22° C | 30% | 1017.5 hPa | 0 mm | - | 800 W/m² | - |
| 1777741101 | 27.78° C | 29% | 1017.4 hPa | 0 mm | - | 817 W/m² | - |
| 1777740798 | 28.33° C | 28% | 1017.5 hPa | 0 mm | - | 688 W/m² | - |
| 1777740495 | 27.78° C | 29% | 1017.3 hPa | 0 mm | - | 782 W/m² | - |
| 1777740192 | 27.22° C | 30% | 1017.4 hPa | 0 mm | - | 651 W/m² | - |
| 1777739888 | 27.22° C | 31% | 1017.5 hPa | 0 mm | - | 652 W/m² | - |
| 1777739584 | 27.22° C | 31% | 1017.3 hPa | 0 mm | - | 723 W/m² | - |
| 1777739283 | 27.78° C | 31% | 1017.2 hPa | 0 mm | - | 604 W/m² | - |
| 1777738979 | 27.22° C | 31% | 1017.4 hPa | 0 mm | - | 617 W/m² | - |
| 1777738675 | 27.22° C | 31% | 1017.4 hPa | 0 mm | - | 642 W/m² | - |
| 1777738372 | 27.22° C | 30% | 1017.2 hPa | 0 mm | - | 497 W/m² | - |
| 1777738070 | 27.22° C | 29% | 1017 hPa | 0 mm | - | 590 W/m² | - |
| 1777737769 | 27.22° C | 28% | 1017.2 hPa | 0 mm | - | 543 W/m² | - |
| 1777737467 | 27.78° C | 24% | 1017.1 hPa | 0 mm | - | 585 W/m² | - |
| 1777737165 | 27.22° C | 25% | 1017.1 hPa | 0 mm | - | 571 W/m² | - |
| 1777736859 | 26.67° C | 25% | 1017.1 hPa | 0 mm | - | 515 W/m² | - |
| 1777736247 | 26.67° C | 23% | 1016.9 hPa | 0 mm | - | 382 W/m² | - |
| 1777735943 | 26.67° C | 23% | 1017.1 hPa | 0 mm | - | 407 W/m² | - |
| 1777735641 | 26.67° C | 23% | 1017.2 hPa | 0 mm | - | 376 W/m² | - |
* Rain latest hour (hover to see other rain measurements)
** Current wind speed in m/s (hover to see current wind gust speed)